| time (UTC) | temp F | wind direction | speed knots | gust knots | rain 1hr in | rain 24hr in | rain mn in | humidity % | barometer mb |
| 20260510113057 | 53 | 93 | 4.3 | 11.3 | 0.00 | 0.00 | 0.00 | 74 | 1015.6 |
| 20260510111548 | 53 | 54 | 5.2 | 11.3 | 0.00 | 0.00 | 0.00 | 73 | 1015.6 |
| 20260510110051 | 53 | 60 | 4.3 | 9.6 | 0.00 | 0.00 | 0.00 | 74 | 1015.8 |
| 20260510104557 | 54 | 316 | 4.3 | 11.3 | 0.00 | 0.00 | 0.00 | 74 | 1015.9 |
| 20260510103052 | 54 | 75 | 6.1 | 10.4 | 0.00 | 0.00 | 0.00 | 71 | 1015.7 |
| 20260510101555 | 54 | 43 | 5.2 | 10.4 | 0.00 | 0.00 | 0.00 | 72 | 1015.8 |
| 20260510094603 | 55 | 102 | 4.3 | 9.6 | 0.00 | 0.00 | 0.00 | 72 | 1015.7 |
| 20260510093050 | 55 | 49 | 5.2 | 13.9 | 0.00 | 0.00 | 0.00 | 70 | 1015.7 |
| 20260510091550 | 54 | 55 | 6.1 | 11.3 | 0.00 | 0.00 | 0.00 | 71 | 1015.7 |
| 20260510090056 | 54 | 56 | 4.3 | 12.2 | 0.00 | 0.00 | 0.00 | 73 | 1015.8 |
| 20260510084553 | 54 | 81 | 6.1 | 13.0 | 0.00 | 0.00 | 0.00 | 73 | 1016.0 |
| 20260510083048 | 53 | 52 | 5.2 | 12.2 | 0.00 | 0.00 | 0.00 | 75 | 1016.1 |
| 20260510081547 | 53 | 72 | 7.0 | 11.3 | 0.00 | 0.00 | 0.00 | 76 | 1016.2 |
| 20260510080054 | 53 | 50 | 5.2 | 13.9 | 0.00 | 0.00 | 0.00 | 77 | 1016.1 |
| 20260510074549 | 52 | 337 | 6.1 | 13.0 | 0.00 | 0.00 | 0.00 | 78 | 1016.2 |
| 20260510073048 | 52 | 47 | 4.3 | 9.6 | 0.00 | 0.00 | 0.00 | 81 | 1016.2 |
| 20260510071545 | 51 | 83 | 4.3 | 11.3 | 0.00 | 0.00 | 0.00 | 81 | 1016.2 |
| 20260510070105 | 51 | 49 | 3.5 | 11.3 | 0.00 | 0.00 | 0.00 | 82 | 1016.2 |
| 20260510064555 | 50 | 89 | 5.2 | 8.7 | 0.00 | 0.00 | 0.00 | 83 | 1016.3 |
| 20260510063059 | 50 | 53 | 4.3 | 9.6 | 0.00 | 0.00 | 0.00 | 84 | 1016.2 |
| 20260510061555 | 50 | 31 | 4.3 | 10.4 | 0.00 | 0.00 | 0.00 | 86 | 1016.1 |
| 20260510060116 | 49 | 60 | 4.3 | 9.6 | 0.00 | 0.00 | 0.00 | 87 | 1015.9 |
| 20260510054554 | 49 | 49 | 3.5 | 7.8 | 0.00 | 0.00 | 0.00 | 88 | 1015.8 |
| 20260510053052 | 49 | 68 | 3.5 | 12.2 | 0.00 | 0.00 | 0.00 | 88 | 1015.8 |
| 20260510051551 | 48 | 79 | 2.6 | 8.7 | 0.00 | 0.00 | 0.00 | 89 | 1015.8 |
| 20260510050054 | 48 | 56 | 2.6 | 9.6 | 0.00 | 0.00 | 0.00 | 89 | 1015.7 |
| 20260510044603 | 48 | 64 | 2.6 | 9.6 | 0.00 | 0.00 | 0.00 | 89 | 1015.7 |
| 20260510043054 | 48 | 84 | 3.5 | 7.0 | 0.00 | 0.00 | 0.00 | 90 | 1015.8 |
| 20260510041557 | 48 | 13 | 3.5 | 8.7 | 0.00 | 0.00 | 0.00 | 90 | 1015.9 |
| 20260510040053 | 48 | 63 | 2.6 | 8.7 | 0.00 | 0.00 | 0.00 | 90 | 1015.8 |
| 20260510034550 | 49 | 62 | 2.6 | 7.0 | 0.00 | 0.00 | 0.00 | 90 | 1015.9 |
| 20260510033118 | 49 | 71 | 2.6 | 7.0 | 0.00 | 0.00 | 0.00 | 90 | 1016.2 |
| 20260510031614 | 49 | 58 | 2.6 | 8.7 | 0.00 | 0.00 | 0.00 | 90 | 1016.2 |
| 20260510030052 | 49 | 122 | 2.6 | 7.0 | 0.00 | 0.00 | 0.00 | 90 | 1016.1 |
| 20260510024659 | 48 | 71 | 2.6 | 7.0 | 0.00 | 0.00 | 0.00 | 90 | 1016.1 |
| 20260510023057 | 48 | 61 | 2.6 | 7.8 | 0.00 | 0.00 | 0.00 | 90 | 1015.9 |
| 20260510021552 | 48 | 68 | 1.7 | 6.1 | 0.00 | 0.00 | 0.00 | 89 | 1016.1 |
| 20260510020048 | 49 | 61 | 1.7 | 5.2 | 0.00 | 0.00 | 0.00 | 88 | 1016.3 |
| 20260510014607 | 49 | 62 | 2.6 | 5.2 | 0.00 | 0.00 | 0.00 | 88 | 1016.4 |
| 20260510013056 | 49 | 86 | 1.7 | 5.2 | 0.00 | 0.00 | 0.00 | 88 | 1016.4 |
| 20260510011557 | 49 | 13 | 1.7 | 6.1 | 0.00 | 0.00 | 0.00 | 87 | 1016.2 |
| 20260510004558 | 49 | 56 | 2.6 | 6.1 | 0.00 | 0.00 | 0.00 | 84 | 1016.0 |
| 20260510003101 | 50 | 59 | 2.6 | 6.1 | 0.00 | 0.00 | 0.00 | 82 | 1016.2 |
| 20260510001551 | 50 | 53 | 0.9 | 6.1 | 0.00 | 0.00 | 0.00 | 81 | 1016.3 |
| 20260510000056 | 50 | 75 | 1.7 | 4.3 | 0.00 | 0.00 | 0.00 | 82 | 1016.4 |
| 20260509234605 | 50 | 82 | 1.7 | 5.2 | 0.00 | 0.00 | 0.00 | 83 | 1016.4 |
| 20260509233047 | 51 | 77 | 1.7 | 4.3 | 0.00 | 0.00 | 0.00 | 82 | 1016.5 |
| 20260509231548 | 51 | 56 | 1.7 | 5.2 | 0.00 | 0.00 | 0.00 | 81 | 1016.6 |
| 20260509230055 | 51 | 54 | 2.6 | 6.1 | 0.00 | 0.00 | 0.00 | 79 | 1016.6 |
| 20260509224549 | 51 | 58 | 2.6 | 5.2 | 0.00 | 0.00 | 0.00 | 79 | 1016.6 |
| 20260509223058 | 52 | 65 | 2.6 | 6.1 | 0.00 | 0.00 | 0.00 | 77 | 1016.5 |
| 20260509221553 | 52 | 78 | 0.0 | 1.7 | 0.00 | 0.00 | 0.00 | 75 | 1016.7 |
| 20260509214551 | 53 | 87 | 1.7 | 4.3 | 0.00 | 0.00 | 0.00 | 71 | 1016.5 |
| 20260509213055 | 53 | 65 | 2.6 | 6.1 | 0.00 | 0.00 | 0.00 | 69 | 1016.4 |
| 20260509211554 | 54 | 47 | 2.6 | 6.1 | 0.00 | 0.00 | 0.00 | 67 | 1016.4 |
| 20260509210056 | 54 | 54 | 1.7 | 5.2 | 0.00 | 0.00 | 0.00 | 67 | 1016.1 |
| 20260509204559 | 55 | 77 | 0.9 | 4.3 | 0.00 | 0.00 | 0.00 | 65 | 1016.1 |
| 20260509203058 | 55 | 0 | 0.9 | 6.1 | 0.00 | 0.00 | 0.00 | 64 | 1016.1 |
| 20260509201548 | 56 | 54 | 2.6 | 6.1 | 0.00 | 0.00 | 0.00 | 62 | 1016.0 |
| 20260509200054 | 56 | 97 | 1.7 | 6.1 | 0.00 | 0.00 | 0.00 | 60 | 1015.9 |
| 20260509194556 | 57 | 51 | 1.7 | 4.3 | 0.00 | 0.00 | 0.00 | 58 | 1015.9 |
| 20260509193047 | 57 | 40 | 1.7 | 4.3 | 0.00 | 0.00 | 0.00 | 57 | 1015.8 |
| 20260509191549 | 57 | 70 | 1.7 | 7.8 | 0.00 | 0.00 | 0.00 | 54 | 1015.8 |
| 20260509190052 | 58 | 108 | 2.6 | 6.1 | 0.00 | 0.00 | 0.00 | 52 | 1015.7 |
| 20260509184552 | 59 | 113 | 3.5 | 7.0 | 0.00 | 0.00 | 0.00 | 49 | 1015.6 |
| 20260509183053 | 59 | 63 | 2.6 | 7.0 | 0.00 | 0.00 | 0.00 | 48 | 1015.7 |
| 20260509181602 | 60 | 67 | 3.5 | 7.8 | 0.00 | 0.00 | 0.00 | 46 | 1015.6 |
| 20260509180058 | 61 | 85 | 4.3 | 10.4 | 0.00 | 0.00 | 0.00 | 46 | 1015.5 |
| 20260509174554 | 62 | 53 | 3.5 | 8.7 | 0.00 | 0.00 | 0.00 | 45 | 1015.4 |
| 20260509173058 | 62 | 82 | 4.3 | 12.2 | 0.00 | 0.00 | 0.00 | 43 | 1015.5 |
| 20260509171555 | 62 | 75 | 5.2 | 11.3 | 0.00 | 0.00 | 0.00 | 45 | 1015.5 |
| 20260509170054 | 63 | 68 | 4.3 | 10.4 | 0.00 | 0.00 | 0.00 | 47 | 1015.6 |
| 20260509164551 | 63 | 57 | 6.1 | 13.9 | 0.00 | 0.00 | 0.00 | 46 | 1015.6 |
| 20260509163100 | 64 | 115 | 5.2 | 11.3 | 0.00 | 0.00 | 0.00 | 46 | 1015.6 |
| 20260509161552 | 64 | 163 | 3.5 | 8.7 | 0.00 | 0.00 | 0.00 | 52 | 1015.8 |
| 20260509160049 | 64 | 62 | 4.3 | 10.4 | 0.00 | 0.00 | 0.00 | 51 | 1015.7 |
| 20260509154600 | 64 | 65 | 5.2 | 11.3 | 0.00 | 0.00 | 0.00 | 51 | 1015.9 |
| 20260509153050 | 64 | 99 | 4.3 | 12.2 | 0.00 | 0.00 | 0.00 | 51 | 1015.9 |
| 20260509151555 | 64 | 148 | 5.2 | 12.2 | 0.00 | 0.00 | 0.00 | 54 | 1015.9 |
| 20260509150050 | 65 | 137 | 5.2 | 11.3 | 0.00 | 0.00 | 0.00 | 53 | 1015.7 |
| 20260509144606 | 65 | 138 | 5.2 | 13.9 | 0.00 | 0.00 | 0.00 | 53 | 1015.5 |
| 20260509143053 | 66 | 40 | 5.2 | 11.3 | 0.00 | 0.00 | 0.00 | 53 | 1015.2 |
| 20260509141553 | 66 | 115 | 4.3 | 11.3 | 0.00 | 0.00 | 0.00 | 54 | 1015.4 |
| 20260509140105 | 66 | 82 | 5.2 | 12.2 | 0.00 | 0.00 | 0.00 | 57 | 1015.5 |
| 20260509134552 | 66 | 109 | 4.3 | 11.3 | 0.00 | 0.00 | 0.00 | 54 | 1015.5 |
| 20260509133105 | 66 | 347 | 5.2 | 12.2 | 0.00 | 0.00 | 0.00 | 53 | 1015.6 |
| 20260509131559 | 66 | 88 | 4.3 | 10.4 | 0.00 | 0.00 | 0.00 | 54 | 1015.6 |
| 20260509130059 | 66 | 56 | 5.2 | 11.3 | 0.00 | 0.00 | 0.00 | 56 | 1015.8 |
| 20260509124603 | 65 | 42 | 4.3 | 11.3 | 0.00 | 0.00 | 0.00 | 55 | 1016.0 |
| 20260509123052 | 65 | 39 | 4.3 | 11.3 | 0.00 | 0.00 | 0.00 | 55 | 1016.1 |
| 20260509121557 | 66 | 60 | 3.5 | 8.7 | 0.00 | 0.00 | 0.00 | 54 | 1016.2 |
| 20260509120054 | 66 | 105 | 4.3 | 9.6 | 0.00 | 0.00 | 0.00 | 53 | 1016.2 |
| 20260509114553 | 66 | 54 | 4.3 | 11.3 | 0.00 | 0.00 | 0.00 | 54 | 1016.4 |